Tracking 22879 objects as of 21-Apr-2021
HD Live streaming from Space Station
objects crossing your sky now

OBJECT BE

Track OBJECT BE now!
10-day predictions


NORAD ID: 43810
Int'l Code: 2018-099BE
Perigee: 578.2 km
Apogee: 596.4 km
Inclination: 97.7 °
Period: 96.3 minutes
Semi major axis: 6958 km
RCS: Unknown
Launch date: December 3, 2018
Source: (TBD)
Launch site: AIR FORCE WESTERN TEST RANGE (AFWTR)
aabbcc
Your satellite tracking list
Your tracking list is empty




NASA's NSSDC Master Catalog

Two Line Element Set (TLE):
1 43810U 18099BE  21111.37481668 -.00000253  00000-0 -17605-4 0  9997
2 43810  97.6564 182.3760 0013037 234.3148 125.6854 14.95712835129526
Source of the keplerian elements: AFSPC